,,,PA_Meas_PMT16A,,PR_Meas_QMR101_102,,RH_Meas_QMH101,,SR_Meas_QMS101,,TA_Meas_QMH101,,GenWind,,GenWind,
date,time,status,PA,status,PR,status,RH,status,SR,status,TA,status,DirAvg,status,SpdAvg,
2014-08-23, 00:00:04,VALID,1009.65,VALID,0,INVALID,131.209,VALID,0.112112,VALID,22.9147,VALID,343,VALID,0,
2014-08-23, 00:01:04,VALID,1009.66,VALID,0,INVALID,131.254,VALID,0.112112,VALID,22.8935,VALID,343,VALID,0,
2014-08-23, 00:02:04,VALID,1009.64,VALID,0,INVALID,131.384,VALID,0.112112,VALID,22.8545,VALID,343,VALID,0,
2014-08-23, 00:03:04,VALID,1009.6,VALID,0,INVALID,131.453,VALID,0.112112,VALID,22.8368,VALID,343,VALID,0,
2014-08-23, 00:04:04,VALID,1009.61,VALID,0,INVALID,131.476,VALID,0.112112,VALID,22.7961,VALID,343,VALID,0,
2014-08-23, 00:05:04,VALID,1009.59,VALID,0,INVALID,131.445,VALID,0,VALID,22.7978,VALID,343,VALID,0,
2014-08-23, 00:06:04,VALID,1009.58,VALID,0,INVALID,131.521,VALID,0.112112,VALID,22.7571,VALID,343,VALID,0,
2014-08-23, 00:07:04,VALID,1009.57,VALID,0,INVALID,131.575,VALID,0,VALID,22.7588,VALID,343,VALID,0,
2014-08-23, 00:08:04,VALID,1009.55,VALID,0,INVALID,131.628,VALID,0,VALID,22.7394,VALID,343,VALID,0,
2014-08-23, 00:09:04,VALID,1009.56,VALID,0,INVALID,131.682,VALID,0,VALID,22.7004,VALID,343,VALID,0,
2014-08-23, 00:10:04,VALID,1009.57,VALID,0,INVALID,131.765,VALID,0.112112,VALID,22.6792,VALID,343,VALID,0,
2014-08-23, 00:11:04,VALID,1009.57,VALID,0,INVALID,131.826,VALID,0,VALID,22.6826,VALID,343,VALID,0,
2014-08-23, 00:12:04,VALID,1009.58,VALID,0,INVALID,131.918,VALID,0,VALID,22.6632,VALID,343,VALID,0,
2014-08-23, 00:13:04,VALID,1009.57,VALID,0,INVALID,131.865,VALID,0,VALID,22.6632,VALID,343,VALID,0,
2014-08-23, 00:14:04,VALID,1009.58,VALID,0,INVALID,131.826,VALID,0,VALID,22.6632,VALID,343,VALID,0,
2014-08-23, 00:15:04,VALID,1009.59,VALID,0,INVALID,131.582,VALID,0,VALID,22.7021,VALID,343,VALID,0,
2014-08-23, 00:16:04,VALID,1009.59,VALID,0,INVALID,131.293,VALID,0,VALID,22.7004,VALID,343,VALID,0,
2014-08-23, 00:17:04,VALID,1009.56,VALID,0,INVALID,131.11,VALID,0,VALID,22.7411,VALID,343,VALID,0,
2014-08-23, 00:18:04,VALID,1009.56,VALID,0,INVALID,130.942,VALID,0,VALID,22.7606,VALID,343,VALID,0,
2014-08-23, 00:19:04,VALID,1009.54,VALID,0,INVALID,130.866,VALID,0,VALID,22.7394,VALID,343,VALID,0,
2014-08-23, 00:20:04,VALID,1009.54,VALID,0,INVALID,130.827,VALID,0,VALID,22.7394,VALID,343,VALID,0,
2014-08-23, 00:21:04,VALID,1009.53,VALID,0,INVALID,130.919,VALID,0,VALID,22.7199,VALID,343,VALID,0,
2014-08-23, 00:22:04,VALID,1009.53,VALID,0,INVALID,130.896,VALID,0,VALID,22.7411,VALID,343,VALID,0,
2014-08-23, 00:23:04,VALID,1009.52,VALID,0,INVALID,130.827,VALID,0,VALID,22.7216,VALID,343,VALID,0,
2014-08-23, 00:24:04,VALID,1009.51,VALID,0,INVALID,130.759,VALID,0,VALID,22.7004,VALID,343,VALID,0,
2014-08-23, 00:25:04,VALID,1009.49,VALID,0,INVALID,130.637,VALID,0,VALID,22.7394,VALID,343,VALID,0,
2014-08-23, 00:26:04,VALID,1009.51,VALID,0,INVALID,130.561,VALID,0,VALID,22.7199,VALID,343,VALID,0,
2014-08-23, 00:27:04,VALID,1009.47,VALID,0,INVALID,130.538,VALID,0,VALID,22.7411,VALID,343,VALID,0.320703,
2014-08-23, 00:28:04,VALID,1009.46,VALID,0,INVALID,130.416,VALID,0,VALID,22.7411,VALID,343,VALID,0.400391,
2014-08-23, 00:29:04,VALID,1009.46,VALID,0,INVALID,130.431,VALID,0,VALID,22.7411,VALID,343,VALID,0.287109,
2014-08-23, 00:30:04,VALID,1009.39,VALID,0,INVALID,130.408,VALID,0,VALID,22.7216,VALID,343,VALID,0.298438,
2014-08-23, 00:31:04,VALID,1009.39,VALID,0,INVALID,130.385,VALID,0,VALID,22.7004,VALID,343,VALID,0.199609,
2014-08-23, 00:32:04,VALID,1009.34,VALID,0,INVALID,130.263,VALID,0,VALID,22.7216,VALID,343,VALID,0.341016,
2014-08-23, 00:33:04,VALID,1009.33,VALID,0,INVALID,130.057,VALID,0,VALID,22.7394,VALID,343,VALID,0.317578,
2014-08-23, 00:34:04,VALID,1009.34,VALID,0,INVALID,129.867,VALID,0,VALID,22.78,VALID,343,VALID,0.175781,
2014-08-23, 00:35:04,VALID,1009.35,VALID,0,INVALID,129.867,VALID,0,VALID,22.7606,VALID,343,VALID,0.237109,
2014-08-23, 00:36:04,VALID,1009.33,VALID,0,INVALID,129.851,VALID,0,VALID,22.7606,VALID,343,VALID,0.222656,
2014-08-23, 00:37:04,VALID,1009.32,VALID,0,INVALID,129.92,VALID,0,VALID,22.7394,VALID,343,VALID,0.255859,
2014-08-23, 00:38:04,VALID,1009.31,VALID,0,INVALID,130.011,VALID,0,VALID,22.7216,VALID,343,VALID,0.247266,
2014-08-23, 00:39:04,VALID,1009.31,VALID,0,INVALID,130.027,VALID,0,VALID,22.7216,VALID,343,VALID,0.228906,
2014-08-23, 00:40:04,VALID,1009.33,VALID,0,INVALID,130.034,VALID,0,VALID,22.7021,VALID,343,VALID,0.225,
2014-08-23, 00:41:04,VALID,1009.31,VALID,0,INVALID,130.126,VALID,0.112112,VALID,22.6792,VALID,343,VALID,0.205078,
2014-08-23, 00:42:04,VALID,1009.31,VALID,0,INVALID,130.141,VALID,0.112112,VALID,22.6809,VALID,343,VALID,0.184375,
2014-08-23, 00:43:04,VALID,1009.29,VALID,0,INVALID,130.111,VALID,0.112112,VALID,22.6597,VALID,343,VALID,0.210547,
2014-08-23, 00:44:04,VALID,1009.26,VALID,0,INVALID,130.065,VALID,0,VALID,22.6597,VALID,343,VALID,0.275,
2014-08-23, 00:45:04,VALID,1009.27,VALID,0,INVALID,129.989,VALID,0,VALID,22.6809,VALID,343,VALID,0.258203,
2014-08-23, 00:46:04,VALID,1009.27,VALID,0,INVALID,129.95,VALID,0.112112,VALID,22.6614,VALID,343,VALID,0.191797,
2014-08-23, 00:47:04,VALID,1009.29,VALID,0,INVALID,130.065,VALID,0,VALID,22.6614,VALID,343,VALID,0.286328,
2014-08-23, 00:48:04,VALID,1009.28,VALID,0,INVALID,130.088,VALID,0,VALID,22.6225,VALID,343,VALID,0.227344,
2014-08-23, 00:49:04,VALID,1009.32,VALID,0,INVALID,130.088,VALID,0,VALID,22.6013,VALID,343,VALID,0.184375,
2014-08-23, 00:50:04,VALID,1009.35,VALID,0,INVALID,130.111,VALID,0.112112,VALID,22.6225,VALID,343,VALID,0.227734,
2014-08-23, 00:51:04,VALID,1009.38,VALID,0,INVALID,130.156,VALID,0.112112,VALID,22.5818,VALID,343,VALID,0.135156,
2014-08-23, 00:52:04,VALID,1009.37,VALID,0,INVALID,130.202,VALID,0,VALID,22.5835,VALID,343,VALID,0.0433594,
2014-08-23, 00:53:04,VALID,1009.42,VALID,0,INVALID,130.263,VALID,0,VALID,22.5429,VALID,343,VALID,0,
2014-08-23, 00:54:04,VALID,1009.42,VALID,0,INVALID,130.233,VALID,0,VALID,22.5429,VALID,343,VALID,0,
2014-08-23, 00:55:04,VALID,1009.39,VALID,0,INVALID,130.179,VALID,0.112112,VALID,22.5234,VALID,343,VALID,0,
2014-08-23, 00:56:04,VALID,1009.4,VALID,0,INVALID,130.149,VALID,0.112112,VALID,22.5446,VALID,343,VALID,0.270703,
2014-08-23, 00:57:04,VALID,1009.39,VALID,0,INVALID,129.943,VALID,0,VALID,22.5835,VALID,343,VALID,0.0695312,
2014-08-23, 00:58:04,VALID,1009.39,VALID,0,INVALID,129.836,VALID,0.112112,VALID,22.5835,VALID,343,VALID,0,
2014-08-23, 00:59:04,VALID,1009.36,VALID,0,INVALID,129.821,VALID,0,VALID,22.5623,VALID,343,VALID,0,
2014-08-23, 01:00:04,VALID,1009.38,VALID,0,INVALID,129.783,VALID,0.112112,VALID,22.603,VALID,343,VALID,0,
2014-08-23, 01:01:04,VALID,1009.4,VALID,0,INVALID,129.775,VALID,0,VALID,22.5623,VALID,343,VALID,0,
2014-08-23, 01:02:04,VALID,1009.4,VALID,0,INVALID,129.699,VALID,0,VALID,22.6225,VALID,343,VALID,0,
2014-08-23, 01:03:04,VALID,1009.41,VALID,0,INVALID,129.653,VALID,0.112112,VALID,22.5818,VALID,343,VALID,0,
2014-08-23, 01:04:04,VALID,1009.43,VALID,0,INVALID,129.691,VALID,0,VALID,22.603,VALID,343,VALID,0,
2014-08-23, 01:05:04,VALID,1009.43,VALID,0,INVALID,129.638,VALID,0.112112,VALID,22.6013,VALID,343,VALID,0,
2014-08-23, 01:06:04,VALID,1009.42,VALID,0,INVALID,129.607,VALID,0.112112,VALID,22.6013,VALID,343,VALID,0,
2014-08-23, 01:07:04,VALID,1009.45,VALID,0,INVALID,129.584,VALID,0.112112,VALID,22.6013,VALID,343,VALID,0,
2014-08-23, 01:08:04,VALID,1009.45,VALID,0,INVALID,129.638,VALID,0,VALID,22.5818,VALID,343,VALID,0,
2014-08-23, 01:09:04,VALID,1009.44,VALID,0,INVALID,129.714,VALID,0,VALID,22.5835,VALID,343,VALID,0,
2014-08-23, 01:10:04,VALID,1009.46,VALID,0,INVALID,129.706,VALID,0,VALID,22.564,VALID,343,VALID,0,
2014-08-23, 01:11:04,VALID,1009.45,VALID,0,INVALID,129.722,VALID,0,VALID,22.5658,VALID,343,VALID,0.0625,
2014-08-23, 01:12:04,VALID,1009.46,VALID,0,INVALID,129.729,VALID,0,VALID,22.5658,VALID,343,VALID,0,
2014-08-23, 01:13:04,VALID,1009.43,VALID,0,INVALID,129.63,VALID,0,VALID,22.5658,VALID,343,VALID,0,
2014-08-23, 01:14:04,VALID,1009.43,VALID,0,INVALID,129.668,VALID,0,VALID,22.5658,VALID,343,VALID,0,
2014-08-23, 01:15:04,VALID,1009.4,VALID,0,INVALID,129.562,VALID,0,VALID,22.564,VALID,343,VALID,0,
2014-08-23, 01:16:04,VALID,1009.39,VALID,0,INVALID,129.432,VALID,0,VALID,22.564,VALID,343,VALID,0,
2014-08-23, 01:17:04,VALID,1009.41,VALID,0,INVALID,129.371,VALID,0,VALID,22.564,VALID,343,VALID,0,
2014-08-23, 01:18:04,VALID,1009.38,VALID,0,INVALID,129.325,VALID,0,VALID,22.564,VALID,343,VALID,0,
2014-08-23, 01:19:04,VALID,1009.39,VALID,0,INVALID,129.203,VALID,0,VALID,22.6242,VALID,343,VALID,0,
2014-08-23, 01:20:04,VALID,1009.37,VALID,0,INVALID,129.074,VALID,0,VALID,22.6242,VALID,343,VALID,0,
2014-08-23, 01:21:04,VALID,1009.33,VALID,0,INVALID,129.173,VALID,0,VALID,22.6242,VALID,343,VALID,0,
2014-08-23, 01:22:04,VALID,1009.32,VALID,0,INVALID,129.31,VALID,0,VALID,22.5835,VALID,343,VALID,0,
2014-08-23, 01:23:04,VALID,1009.31,VALID,0,INVALID,129.409,VALID,0,VALID,22.5446,VALID,343,VALID,0,
2014-08-23, 01:24:04,VALID,1009.29,VALID,0,INVALID,129.531,VALID,0,VALID,22.5463,VALID,343,VALID,0,
2014-08-23, 01:25:04,VALID,1009.29,VALID,0,INVALID,129.562,VALID,0,VALID,22.5268,VALID,343,VALID,0,
2014-08-23, 01:26:04,VALID,1009.26,VALID,0,INVALID,129.706,VALID,0,VALID,22.5056,VALID,343,VALID,0.461328,
2014-08-23, 01:27:04,VALID,1009.25,VALID,0,INVALID,129.821,VALID,0,VALID,22.4844,VALID,343,VALID,0.455859,
2014-08-23, 01:28:04,VALID,1009.25,VALID,0,INVALID,129.813,VALID,0,VALID,22.465,VALID,343,VALID,0.335938,
2014-08-23, 01:29:04,VALID,1009.23,VALID,0,INVALID,129.897,VALID,0.112112,VALID,22.4472,VALID,343,VALID,0.135156,
2014-08-23, 01:30:04,VALID,1009.24,VALID,0,INVALID,129.92,VALID,0.112112,VALID,22.426,VALID,343,VALID,0,
2014-08-23, 01:31:04,VALID,1009.23,VALID,0,INVALID,129.905,VALID,0,VALID,22.4472,VALID,343,VALID,0,
2014-08-23, 01:32:04,VALID,1009.22,VALID,0,INVALID,129.851,VALID,0,VALID,22.4472,VALID,343,VALID,0,
2014-08-23, 01:33:04,VALID,1009.24,VALID,0,INVALID,129.676,VALID,0.112112,VALID,22.4667,VALID,343,VALID,0.107813,
2014-08-23, 01:34:04,VALID,1009.25,VALID,0,INVALID,129.485,VALID,0,VALID,22.4844,VALID,343,VALID,0.225,
2014-08-23, 01:35:04,VALID,1009.22,VALID,0,INVALID,129.417,VALID,0,VALID,22.5056,VALID,343,VALID,0.343359,
2014-08-23, 01:36:04,VALID,1009.25,VALID,0,INVALID,129.249,VALID,0,VALID,22.5446,VALID,343,VALID,0.447266,
2014-08-23, 01:37:04,VALID,1009.23,VALID,0,INVALID,129.127,VALID,0,VALID,22.5835,VALID,343,VALID,0.313281,
2014-08-23, 01:38:04,VALID,1009.22,VALID,0,INVALID,128.967,VALID,0,VALID,22.603,VALID,343,VALID,0.165625,
2014-08-23, 01:39:04,VALID,1009.23,VALID,0,INVALID,128.921,VALID,0.112112,VALID,22.603,VALID,343,VALID,0,
2014-08-23, 01:40:04,VALID,1009.21,VALID,0,INVALID,128.807,VALID,0,VALID,22.603,VALID,343,VALID,0,
2014-08-23, 01:41:04,VALID,1009.2,VALID,0,INVALID,128.807,VALID,0,VALID,22.6225,VALID,343,VALID,0.201562,
2014-08-23, 01:42:04,VALID,1009.18,VALID,0,INVALID,128.868,VALID,0,VALID,22.6013,VALID,343,VALID,0.223438,
2014-08-23, 01:43:04,VALID,1009.17,VALID,0,INVALID,128.982,VALID,0,VALID,22.6013,VALID,343,VALID,0.189844,
2014-08-23, 01:44:04,VALID,1009.16,VALID,0,INVALID,129.18,VALID,0,VALID,22.5835,VALID,343,VALID,0.215625,
2014-08-23, 01:45:04,VALID,1009.15,VALID,0,INVALID,129.379,VALID,0,VALID,22.5234,VALID,343,VALID,0.191406,
2014-08-23, 01:46:04,VALID,1009.12,VALID,0,INVALID,129.409,VALID,0.112112,VALID,22.5251,VALID,343,VALID,0.195313,
2014-08-23, 01:47:04,VALID,1009.14,VALID,0,INVALID,129.455,VALID,0.112112,VALID,22.5251,VALID,343,VALID,0,
2014-08-23, 01:48:04,VALID,1009.13,VALID,0,INVALID,129.523,VALID,0.112112,VALID,22.4844,VALID,343,VALID,0,
2014-08-23, 01:49:04,VALID,1009.15,VALID,0,INVALID,129.653,VALID,0.112112,VALID,22.465,VALID,343,VALID,0,
2014-08-23, 01:50:04,VALID,1009.14,VALID,0,INVALID,129.684,VALID,0.112112,VALID,22.4861,VALID,343,VALID,0,
2014-08-23, 01:51:04,VALID,1009.18,VALID,0,INVALID,129.752,VALID,0.112112,VALID,22.4667,VALID,343,VALID,0,
2014-08-23, 01:52:04,VALID,1009.16,VALID,0,INVALID,129.859,VALID,0.112112,VALID,22.426,VALID,343,VALID,0,
2014-08-23, 01:53:04,VALID,1009.15,VALID,0,INVALID,129.943,VALID,0,VALID,22.387,VALID,343,VALID,0,
2014-08-23, 01:54:04,VALID,1009.12,VALID,0,INVALID,129.943,VALID,0,VALID,22.4082,VALID,343,VALID,0.059375,
2014-08-23, 01:55:04,VALID,1009.12,VALID,0,INVALID,129.889,VALID,0,VALID,22.3887,VALID,343,VALID,0.0988281,
2014-08-23, 01:56:04,VALID,1009.09,VALID,0,INVALID,129.912,VALID,0,VALID,22.3887,VALID,343,VALID,0,
2014-08-23, 01:57:04,VALID,1009.13,VALID,0,INVALID,129.889,VALID,0,VALID,22.3887,VALID,343,VALID,0,
2014-08-23, 01:58:04,VALID,1009.13,VALID,0,INVALID,129.836,VALID,0,VALID,22.3676,VALID,343,VALID,0,
2014-08-23, 01:59:04,VALID,1009.14,VALID,0,INVALID,129.828,VALID,0,VALID,22.3481,VALID,343,VALID,0,
2014-08-23, 02:00:04,VALID,1009.15,VALID,0,INVALID,129.851,VALID,0,VALID,22.3498,VALID,343,VALID,0.00234375,
2014-08-23, 02:01:04,VALID,1009.15,VALID,0,INVALID,129.828,VALID,0,VALID,22.3286,VALID,343,VALID,0.0703125,
2014-08-23, 02:02:04,VALID,1009.15,VALID,0,INVALID,129.783,VALID,0,VALID,22.3498,VALID,343,VALID,0.190234,
2014-08-23, 02:03:04,VALID,1009.15,VALID,0,INVALID,129.684,VALID,0,VALID,22.3498,VALID,343,VALID,0.160156,
2014-08-23, 02:04:04,VALID,1009.14,VALID,0,INVALID,129.531,VALID,0.112112,VALID,22.3286,VALID,343,VALID,0.0257812,
2014-08-23, 02:05:04,VALID,1009.08,VALID,0,INVALID,129.462,VALID,0,VALID,22.3693,VALID,343,VALID,0.096875,
2014-08-23, 02:06:04,VALID,1009.13,VALID,0,INVALID,129.318,VALID,0,VALID,22.3693,VALID,343,VALID,0,
2014-08-23, 02:07:04,VALID,1009.14,VALID,0,INVALID,129.226,VALID,0,VALID,22.3693,VALID,343,VALID,0,
2014-08-23, 02:08:04,VALID,1009.12,VALID,0,INVALID,129.173,VALID,0,VALID,22.3887,VALID,343,VALID,0.191406,
2014-08-23, 02:09:04,VALID,1009.15,VALID,0,INVALID,129.188,VALID,0.112112,VALID,22.3481,VALID,343,VALID,0.0105469,
2014-08-23, 02:10:04,VALID,1009.15,VALID,0,INVALID,129.264,VALID,0,VALID,22.3498,VALID,343,VALID,0,
2014-08-23, 02:11:04,VALID,1009.14,VALID,0,INVALID,129.401,VALID,0.112112,VALID,22.3303,VALID,343,VALID,0,
2014-08-23, 02:12:04,VALID,1009.15,VALID,0,INVALID,129.447,VALID,0.112112,VALID,22.2897,VALID,343,VALID,0,
2014-08-23, 02:13:04,VALID,1009.13,VALID,0,INVALID,129.424,VALID,0.112112,VALID,22.3108,VALID,343,VALID,0,
2014-08-23, 02:14:04,VALID,1009.13,VALID,0,INVALID,129.211,VALID,0.112112,VALID,22.2897,VALID,343,VALID,0.163281,
2014-08-23, 02:15:04,VALID,1009.12,VALID,0,INVALID,128.974,VALID,0,VALID,22.3498,VALID,343,VALID,0.257031,
2014-08-23, 02:16:04,VALID,1009.13,VALID,0,INVALID,128.784,VALID,0.112112,VALID,22.3693,VALID,343,VALID,0.26875,
2014-08-23, 02:17:04,VALID,1009.12,VALID,0,INVALID,128.715,VALID,0,VALID,22.3676,VALID,343,VALID,0.38125,
2014-08-23, 02:18:04,VALID,1009.14,VALID,0,INVALID,128.585,VALID,0.112112,VALID,22.3887,VALID,343,VALID,0.238672,
2014-08-23, 02:19:04,VALID,1009.19,VALID,0,INVALID,128.547,VALID,0.112112,VALID,22.4082,VALID,343,VALID,0.188672,
2014-08-23, 02:20:04,VALID,1009.18,VALID,0,INVALID,128.54,VALID,0.112112,VALID,22.4082,VALID,343,VALID,0.117188,
2014-08-23, 02:21:04,VALID,1009.16,VALID,0,INVALID,128.646,VALID,0.112112,VALID,22.3887,VALID,343,VALID,0.00546875,
2014-08-23, 02:22:04,VALID,1009.19,VALID,0,INVALID,128.723,VALID,0.112112,VALID,22.3693,VALID,343,VALID,0.403125,
2014-08-23, 02:23:04,VALID,1009.2,VALID,0,INVALID,128.738,VALID,0.112112,VALID,22.3286,VALID,343,VALID,0.447266,
2014-08-23, 02:24:04,VALID,1009.19,VALID,0,INVALID,128.776,VALID,0,VALID,22.2897,VALID,343,VALID,0.391797,
2014-08-23, 02:25:04,VALID,1009.18,VALID,0,INVALID,128.768,VALID,0.112112,VALID,22.2897,VALID,343,VALID,0.432031,
2014-08-23, 02:26:04,VALID,1009.18,VALID,0,INVALID,128.753,VALID,0,VALID,22.3108,VALID,343,VALID,0.391406,
2014-08-23, 02:27:04,VALID,1009.2,VALID,0,INVALID,128.654,VALID,0,VALID,22.2914,VALID,343,VALID,0.466406,
2014-08-23, 02:28:04,VALID,1009.16,VALID,0,INVALID,128.563,VALID,0,VALID,22.3108,VALID,343,VALID,0.430859,
2014-08-23, 02:29:04,VALID,1009.15,VALID,0,INVALID,128.509,VALID,0.112112,VALID,22.3303,VALID,343,VALID,0.422656,
2014-08-23, 02:30:04,VALID,1009.15,VALID,0,INVALID,128.532,VALID,0.112112,VALID,22.2897,VALID,343,VALID,0.01875,
2014-08-23, 02:31:04,VALID,1009.15,VALID,0,INVALID,128.547,VALID,0.112112,VALID,22.2914,VALID,343,VALID,0.0183594,
2014-08-23, 02:32:04,VALID,1009.16,VALID,0,INVALID,128.54,VALID,0,VALID,22.2914,VALID,343,VALID,0.0332031,
2014-08-23, 02:33:04,VALID,1009.16,VALID,0,INVALID,128.563,VALID,0.112112,VALID,22.2914,VALID,343,VALID,0.249219,
2014-08-23, 02:34:04,VALID,1009.16,VALID,0,INVALID,128.578,VALID,0,VALID,22.2914,VALID,343,VALID,0.111719,
2014-08-23, 02:35:04,VALID,1009.15,VALID,0,INVALID,128.608,VALID,0.112112,VALID,22.2719,VALID,343,VALID,0,
2014-08-23, 02:36:04,VALID,1009.18,VALID,0,INVALID,128.662,VALID,0.112112,VALID,22.2524,VALID,343,VALID,0,
2014-08-23, 02:37:04,VALID,1009.19,VALID,0,INVALID,128.662,VALID,0.112112,VALID,22.2312,VALID,343,VALID,0,
2014-08-23, 02:38:04,VALID,1009.19,VALID,0,INVALID,128.723,VALID,0.112112,VALID,22.2329,VALID,343,VALID,0,
2014-08-23, 02:39:04,VALID,1009.22,VALID,0,INVALID,128.73,VALID,0.112112,VALID,22.2329,VALID,343,VALID,0,
2014-08-23, 02:40:04,VALID,1009.2,VALID,0,INVALID,128.631,VALID,0,VALID,22.2329,VALID,343,VALID,0.0421875,
2014-08-23, 02:41:04,VALID,1009.22,VALID,0,INVALID,128.517,VALID,0,VALID,22.2736,VALID,343,VALID,0.336719,
2014-08-23, 02:42:04,VALID,1009.21,VALID,0,INVALID,128.303,VALID,0,VALID,22.3125,VALID,343,VALID,0.197656,
2014-08-23, 02:43:04,VALID,1009.26,VALID,0,INVALID,128.105,VALID,0,VALID,22.3303,VALID,343,VALID,0.351953,
2014-08-23, 02:44:04,VALID,1009.23,VALID,0,INVALID,127.899,VALID,0,VALID,22.3498,VALID,343,VALID,0.0839844,
2014-08-23, 02:45:04,VALID,1009.21,VALID,0,INVALID,127.815,VALID,0,VALID,22.3904,VALID,343,VALID,0.00859375,
2014-08-23, 02:46:04,VALID,1009.23,VALID,0,INVALID,127.747,VALID,0,VALID,22.3904,VALID,343,VALID,0.290234,
2014-08-23, 02:47:04,VALID,1009.19,VALID,0,INVALID,127.701,VALID,0,VALID,22.4099,VALID,343,VALID,0.176172,
2014-08-23, 02:48:04,VALID,1009.2,VALID,0,INVALID,127.831,VALID,0,VALID,22.3904,VALID,343,VALID,0.096875,
2014-08-23, 02:49:04,VALID,1009.2,VALID,0,INVALID,127.922,VALID,0,VALID,22.3498,VALID,343,VALID,0.146094,
2014-08-23, 02:50:04,VALID,1009.21,VALID,0,INVALID,127.968,VALID,0,VALID,22.371,VALID,343,VALID,0.0765625,
2014-08-23, 02:51:04,VALID,1009.21,VALID,0,INVALID,128.014,VALID,0,VALID,22.3303,VALID,343,VALID,0.198437,
2014-08-23, 02:52:04,VALID,1009.22,VALID,0,INVALID,128.082,VALID,0,VALID,22.3108,VALID,343,VALID,0.0777344,
2014-08-23, 02:53:04,VALID,1009.24,VALID,0,INVALID,128.174,VALID,0,VALID,22.332,VALID,343,VALID,0,
2014-08-23, 02:54:04,VALID,1009.25,VALID,0,INVALID,128.258,VALID,0,VALID,22.3125,VALID,343,VALID,0,
2014-08-23, 02:55:04,VALID,1009.24,VALID,0,INVALID,128.311,VALID,0,VALID,22.2914,VALID,343,VALID,0,
2014-08-23, 02:56:04,VALID,1009.23,VALID,0,INVALID,128.425,VALID,0.112112,VALID,22.2719,VALID,343,VALID,0,
2014-08-23, 02:57:04,VALID,1009.26,VALID,0,INVALID,128.524,VALID,0,VALID,22.2312,VALID,343,VALID,0,
2014-08-23, 02:58:04,VALID,1009.27,VALID,0,INVALID,128.54,VALID,0,VALID,22.2524,VALID,343,VALID,0,
2014-08-23, 02:59:05,VALID,1009.26,VALID,0,INVALID,128.547,VALID,0.112112,VALID,22.2312,VALID,343,VALID,0,
2014-08-23, 03:00:05,VALID,1009.25,VALID,0,INVALID,128.502,VALID,0.112112,VALID,22.2312,VALID,343,VALID,0,
2014-08-23, 03:01:05,VALID,1009.25,VALID,0,INVALID,128.486,VALID,0,VALID,22.2524,VALID,343,VALID,0,
2014-08-23, 03:02:05,VALID,1009.25,VALID,0,INVALID,128.486,VALID,0.112112,VALID,22.2524,VALID,343,VALID,0,
2014-08-23, 03:03:05,VALID,1009.23,VALID,0,INVALID,128.532,VALID,0,VALID,22.2329,VALID,343,VALID,0,
2014-08-23, 03:04:05,VALID,1009.25,VALID,0,INVALID,128.509,VALID,0.112112,VALID,22.2118,VALID,343,VALID,0,
2014-08-23, 03:05:05,VALID,1009.27,VALID,0,INVALID,128.486,VALID,0,VALID,22.2118,VALID,343,VALID,0,
2014-08-23, 03:06:05,VALID,1009.28,VALID,0,INVALID,128.509,VALID,0,VALID,22.2134,VALID,343,VALID,0,
2014-08-23, 03:07:05,VALID,1009.3,VALID,0,INVALID,128.555,VALID,0.112112,VALID,22.2134,VALID,343,VALID,0,
2014-08-23, 03:08:05,VALID,1009.29,VALID,0,INVALID,128.578,VALID,0.112112,VALID,22.1923,VALID,343,VALID,0,
2014-08-23, 03:09:05,VALID,1009.29,VALID,0,INVALID,128.509,VALID,0.112112,VALID,22.2524,VALID,343,VALID,0.366797,
2014-08-23, 03:10:05,VALID,1009.29,VALID,0,INVALID,128.349,VALID,0,VALID,22.2719,VALID,343,VALID,0.323047,
2014-08-23, 03:11:05,VALID,1009.28,VALID,0,INVALID,128.25,VALID,0,VALID,22.293,VALID,343,VALID,0.178125,
2014-08-23, 03:12:05,VALID,1009.29,VALID,0,INVALID,128.204,VALID,0,VALID,22.2524,VALID,343,VALID,0.140234,
2014-08-23, 03:13:05,VALID,1009.29,VALID,0,INVALID,128.204,VALID,0,VALID,22.2524,VALID,343,VALID,0.210547,
2014-08-23, 03:14:05,VALID,1009.28,VALID,0,INVALID,128.166,VALID,0,VALID,22.2719,VALID,343,VALID,0.428906,
2014-08-23, 03:15:05,VALID,1009.33,VALID,0,INVALID,128.166,VALID,0,VALID,22.293,VALID,343,VALID,0.318359,
2014-08-23, 03:16:05,VALID,1009.31,VALID,0,INVALID,128.212,VALID,0,VALID,22.2524,VALID,343,VALID,0.518359,
2014-08-23, 03:17:05,VALID,1009.32,VALID,0,INVALID,128.181,VALID,0,VALID,22.2524,VALID,343,VALID,0.562891,
2014-08-23, 03:18:05,VALID,1009.31,VALID,0,INVALID,128.166,VALID,0,VALID,22.2524,VALID,343,VALID,0.447266,
2014-08-23, 03:19:05,VALID,1009.34,VALID,0,INVALID,128.128,VALID,0,VALID,22.2736,VALID,343,VALID,0.482422,
2014-08-23, 03:20:05,VALID,1009.31,VALID,0,INVALID,127.998,VALID,0,VALID,22.2914,VALID,343,VALID,0.683203,
2014-08-23, 03:21:05,VALID,1009.3,VALID,0,INVALID,127.968,VALID,0,VALID,22.3125,VALID,343,VALID,0.398828,
2014-08-23, 03:22:05,VALID,1009.33,VALID,0,INVALID,127.945,VALID,0,VALID,22.3125,VALID,343,VALID,0.356641,
2014-08-23, 03:23:05,VALID,1009.37,VALID,0,INVALID,127.922,VALID,0,VALID,22.3125,VALID,343,VALID,0.291406,
2014-08-23, 03:24:05,VALID,1009.34,VALID,0,INVALID,127.975,VALID,0,VALID,22.2719,VALID,343,VALID,0.234766,
2014-08-23, 03:25:05,VALID,1009.37,VALID,0,INVALID,127.991,VALID,0,VALID,22.2914,VALID,343,VALID,0.219531,
2014-08-23, 03:26:05,VALID,1009.37,VALID,0,INVALID,127.991,VALID,0.112112,VALID,22.2897,VALID,343,VALID,0,
2014-08-23, 03:27:05,VALID,1009.4,VALID,0,INVALID,128.052,VALID,0.112112,VALID,22.2914,VALID,343,VALID,0,
2014-08-23, 03:28:05,VALID,1009.38,VALID,0,INVALID,128.12,VALID,0,VALID,22.2702,VALID,343,VALID,0,
2014-08-23, 03:29:05,VALID,1009.42,VALID,0,INVALID,128.166,VALID,0.112112,VALID,22.2507,VALID,343,VALID,0,
2014-08-23, 03:30:05,VALID,1009.41,VALID,0,INVALID,128.227,VALID,0.112112,VALID,22.2507,VALID,343,VALID,0,
2014-08-23, 03:31:05,VALID,1009.4,VALID,0,INVALID,128.204,VALID,0.112112,VALID,22.2719,VALID,343,VALID,0,
2014-08-23, 03:32:05,VALID,1009.42,VALID,0,INVALID,128.334,VALID,0,VALID,22.2524,VALID,343,VALID,0,
2014-08-23, 03:33:05,VALID,1009.41,VALID,0,INVALID,128.41,VALID,0.112112,VALID,22.2118,VALID,343,VALID,0,
2014-08-23, 03:34:05,VALID,1009.42,VALID,0,INVALID,128.441,VALID,0,VALID,22.2329,VALID,343,VALID,0,
2014-08-23, 03:35:05,VALID,1009.41,VALID,0,INVALID,128.547,VALID,0,VALID,22.1923,VALID,343,VALID,0,
2014-08-23, 03:36:05,VALID,1009.44,VALID,0,INVALID,128.639,VALID,0.112112,VALID,22.1923,VALID,343,VALID,0,
2014-08-23, 03:37:05,VALID,1009.46,VALID,0,INVALID,128.662,VALID,0,VALID,22.194,VALID,343,VALID,0,
2014-08-23, 03:38:05,VALID,1009.47,VALID,0,INVALID,128.646,VALID,0,VALID,22.1745,VALID,343,VALID,0,
2014-08-23, 03:39:05,VALID,1009.5,VALID,0,INVALID,128.662,VALID,0,VALID,22.1728,VALID,343,VALID,0,
2014-08-23, 03:40:05,VALID,1009.51,VALID,0,INVALID,128.639,VALID,0.112112,VALID,22.194,VALID,343,VALID,0,
2014-08-23, 03:41:05,VALID,1009.51,VALID,0,INVALID,128.601,VALID,0.112112,VALID,22.194,VALID,343,VALID,0.226172,
2014-08-23, 03:42:05,VALID,1009.5,VALID,0,INVALID,128.601,VALID,0,VALID,22.1728,VALID,343,VALID,0.365234,